TimeCST,TemperatureF,Dew PointF,Humidity,Sea Level PressureIn,VisibilityMPH,Wind Direction,Wind SpeedMPH,Gust SpeedMPH,PrecipitationIn,Events,Conditions,WindDirDegrees,DateUTC
12:35 AM,50.0,46.4,87,30.31,1.5,Calm,Calm,-,N/A,,Mist,0,2013-01-23 06:35:00
12:55 AM,46.4,44.6,93,30.31,0.2,Calm,Calm,-,N/A,Fog,Fog,0,2013-01-23 06:55:00
1:15 AM,44.6,42.8,93,30.31,0.2,Calm,Calm,-,N/A,Fog,Fog,0,2013-01-23 07:15:00
1:55 AM,46.4,44.6,93,30.31,0.2,Calm,Calm,-,N/A,Fog,Fog,0,2013-01-23 07:55:00
2:15 AM,44.6,42.8,93,30.31,0.2,Calm,Calm,-,N/A,Fog,Fog,0,2013-01-23 08:15:00
2:35 AM,44.6,42.8,93,30.31,0.2,Calm,Calm,-,N/A,Fog,Fog,0,2013-01-23 08:35:00
2:55 AM,42.8,41.0,93,30.32,0.2,Calm,Calm,-,N/A,Fog,Fog,0,2013-01-23 08:55:00
3:15 AM,42.8,41.0,93,30.31,0.2,Calm,Calm,-,N/A,Fog,Fog,0,2013-01-23 09:15:00
3:35 AM,42.8,41.0,93,30.31,0.2,Calm,Calm,-,N/A,Fog,Fog,0,2013-01-23 09:35:00
3:55 AM,42.8,41.0,93,30.31,0.5,Calm,Calm,-,N/A,Fog,Fog,0,2013-01-23 09:55:00
4:15 AM,44.6,41.0,87,30.31,0.2,Calm,Calm,-,N/A,Fog,Fog,0,2013-01-23 10:15:00
4:35 AM,42.8,41.0,93,30.31,0.2,Calm,Calm,-,N/A,Fog,Fog,0,2013-01-23 10:35:00
4:55 AM,42.8,41.0,93,30.31,0.2,Calm,Calm,-,N/A,Fog,Fog,0,2013-01-23 10:55:00
5:15 AM,42.8,41.0,93,30.31,0.2,Calm,Calm,-,N/A,Fog,Fog,0,2013-01-23 11:15:00
5:35 AM,42.8,39.2,87,30.32,0.2,Calm,Calm,-,N/A,Fog,Fog,0,2013-01-23 11:35:00
5:55 AM,42.8,39.2,87,30.32,0.2,Calm,Calm,-,N/A,Fog,Fog,0,2013-01-23 11:55:00
6:15 AM,42.8,39.2,87,30.32,0.2,Calm,Calm,-,N/A,Fog,Fog,0,2013-01-23 12:15:00
6:35 AM,41.0,37.4,87,30.32,3.0,Calm,Calm,-,N/A,,Overcast,0,2013-01-23 12:35:00
6:55 AM,41.0,39.2,93,30.32,3.0,Calm,Calm,-,N/A,,Overcast,0,2013-01-23 12:55:00
7:15 AM,41.0,39.2,93,30.33,0.2,Calm,Calm,-,N/A,Fog,Fog,0,2013-01-23 13:15:00
7:55 AM,42.8,41.0,93,30.34,3.0,Calm,Calm,-,N/A,,Scattered Clouds,0,2013-01-23 13:55:00
8:55 AM,53.6,50.0,88,30.36,5.0,Calm,Calm,-,N/A,,Clear,0,2013-01-23 14:55:00
9:35 AM,60.8,55.4,82,30.36,10.0,SSE,4.6,-,N/A,,Clear,150,2013-01-23 15:35:00
9:55 AM,62.6,53.6,72,30.37,10.0,SE,4.6,-,N/A,,Clear,140,2013-01-23 15:55:00
10:15 AM,64.4,53.6,68,30.37,10.0,SE,8.1,-,N/A,,Clear,130,2013-01-23 16:15:00
10:35 AM,68.0,51.8,56,30.37,10.0,SSE,8.1,-,N/A,,Clear,160,2013-01-23 16:35:00
10:55 AM,69.8,50.0,49,30.37,10.0,SSE,6.9,-,N/A,,Clear,150,2013-01-23 16:55:00
11:15 AM,69.8,50.0,49,30.36,10.0,SSE,11.5,-,N/A,,Clear,160,2013-01-23 17:15:00
11:35 AM,69.8,50.0,49,30.35,10.0,SSE,9.2,-,N/A,,Clear,160,2013-01-23 17:35:00
11:55 AM,69.8,48.2,46,30.34,10.0,SSE,8.1,-,N/A,,Scattered Clouds,160,2013-01-23 17:55:00
12:15 PM,71.6,46.4,41,30.33,10.0,South,11.5,-,N/A,,Scattered Clouds,190,2013-01-23 18:15:00
12:35 PM,71.6,46.4,41,30.32,10.0,SSE,8.1,-,N/A,,Scattered Clouds,160,2013-01-23 18:35:00
12:55 PM,71.6,46.4,41,30.31,10.0,South,8.1,-,N/A,,Mostly Cloudy,170,2013-01-23 18:55:00
1:15 PM,71.6,46.4,41,30.30,10.0,South,9.2,-,N/A,,Mostly Cloudy,190,2013-01-23 19:15:00
1:35 PM,71.6,46.4,41,30.30,10.0,South,8.1,18.4,N/A,,Mostly Cloudy,190,2013-01-23 19:35:00
1:55 PM,71.6,46.4,41,30.29,10.0,SSW,11.5,17.3,N/A,,Mostly Cloudy,200,2013-01-23 19:55:00
2:15 PM,73.4,46.4,38,30.29,10.0,SSW,11.5,-,N/A,,Mostly Cloudy,200,2013-01-23 20:15:00
2:35 PM,73.4,46.4,38,30.28,10.0,SSW,6.9,-,N/A,,Mostly Cloudy,200,2013-01-23 20:35:00
2:55 PM,69.8,46.4,43,30.28,10.0,South,9.2,-,N/A,,Mostly Cloudy,180,2013-01-23 20:55:00
3:15 PM,69.8,46.4,43,30.27,10.0,South,10.4,-,N/A,,Mostly Cloudy,170,2013-01-23 21:15:00
3:35 PM,71.6,48.2,43,30.28,10.0,South,11.5,-,N/A,,Mostly Cloudy,170,2013-01-23 21:35:00
3:55 PM,71.6,46.4,41,30.28,10.0,South,8.1,16.1,N/A,,Mostly Cloudy,180,2013-01-23 21:55:00
4:15 PM,69.8,48.2,46,30.28,10.0,South,10.4,-,N/A,,Scattered Clouds,170,2013-01-23 22:15:00
4:35 PM,69.8,48.2,46,30.28,10.0,South,8.1,-,N/A,,Clear,170,2013-01-23 22:35:00
4:55 PM,68.0,50.0,52,30.28,10.0,South,8.1,-,N/A,,Clear,170,2013-01-23 22:55:00
5:15 PM,68.0,50.0,52,30.28,10.0,South,8.1,-,N/A,,Clear,170,2013-01-23 23:15:00
5:35 PM,64.4,50.0,59,30.27,10.0,South,6.9,-,N/A,,Clear,170,2013-01-23 23:35:00
5:55 PM,62.6,51.8,68,30.27,10.0,SSE,5.8,-,N/A,,Clear,160,2013-01-23 23:55:00
6:15 PM,62.6,51.8,68,30.27,10.0,SSE,5.8,-,N/A,,Clear,160,2013-01-24 00:15:00
6:35 PM,62.6,51.8,68,30.27,10.0,SSE,8.1,-,N/A,,Scattered Clouds,150,2013-01-24 00:35:00
6:55 PM,60.8,51.8,72,30.27,10.0,SE,4.6,-,N/A,,Scattered Clouds,140,2013-01-24 00:55:00
7:15 PM,59.0,51.8,77,30.27,10.0,SE,4.6,-,N/A,,Clear,140,2013-01-24 01:15:00
7:35 PM,59.0,51.8,77,30.27,10.0,SE,3.5,-,N/A,,Clear,140,2013-01-24 01:35:00
7:55 PM,59.0,53.6,82,30.27,10.0,SSE,4.6,-,N/A,,Clear,150,2013-01-24 01:55:00
8:15 PM,57.2,53.6,88,30.27,10.0,SSE,4.6,-,N/A,,Clear,160,2013-01-24 02:15:00
8:35 PM,57.2,53.6,88,30.26,10.0,SSE,3.5,-,N/A,,Clear,160,2013-01-24 02:35:00
8:55 PM,57.2,53.6,88,30.26,10.0,South,4.6,-,N/A,,Clear,170,2013-01-24 02:55:00
9:15 PM,57.2,53.6,88,30.26,10.0,SSE,3.5,-,N/A,,Clear,160,2013-01-24 03:15:00
9:35 PM,57.2,53.6,88,30.26,10.0,South,4.6,-,N/A,,Clear,170,2013-01-24 03:35:00
9:55 PM,57.2,53.6,88,30.26,10.0,South,3.5,-,N/A,,Clear,170,2013-01-24 03:55:00
10:15 PM,55.4,53.6,94,30.27,10.0,SSE,3.5,-,N/A,,Clear,160,2013-01-24 04:15:00
10:35 PM,55.4,53.6,94,30.27,10.0,SSE,4.6,-,N/A,,Clear,160,2013-01-24 04:35:00
11:35 PM,57.2,53.6,88,30.27,10.0,SSE,3.5,-,N/A,,Scattered Clouds,160,2013-01-24 05:35:00